COSMOS 1691 DEB, 43316

Orbit data source: Space-Track

COSMOS 1691 DEB, 43316 is space debris in LEO originally from a launch on Wed, 09 Oct 1985 UTC launched from the Plesetsk Missile And Space Complex (PKMTR). Debris objects in space refer to the collection of defunct objects orbiting the Earth. Examples of debris include non-operational satellites, rocket bodies, and fragments generated from explosions, collisions, or faulty payload assembly.

Loading next visibility...
Identifier
43316, 1985-094AA
Orbit
LEO
Country
Flag of CISCIS
Related business
Manufacturer
Unknown
Mission
Spacecraft
Bus & Motor
Unknown
Mass
Unknown
Launch date (UTC)
1985-10-09 (41 years ago)
Launch vehicle
Unknown
Launch site
Plesetsk Missile And Space Complex (PKMTR)
Object type
Payload
Rocket body
Debris
Shape & HBR
Unknown shape, 0.1 m
Radar Cross Section
Small (<0.1 m²)

Expand to show TLE details & history
Last TLE update: 2 weeks ago

TLE from 2 weeks ago
0 COSMOS 1691 DEB
1 43316U 85094AA  26161.84661290  .00000365  00000-0  17533-2 0  9990
2 43316  82.6026 208.6474 0013950  88.1318 272.1376 12.71312772 74755
Epoch: 2026-06-10T20:19Z
TLE epoch observation values (Epoch: 2026-06-10T20:19:07.354Z)
Latitude
-0.00002°
Longitude
4.66786°
Altitude
1,378.952 km
Speed
7.17 km/s
True Right ascension
13h 54m 35s
True Declination
0° 00' 00"
Sunlit
Object was in full shadow at epoch
Visualization orbit readout
Latitude
Unknown
Longitude
Unknown
Altitude
Unknown
Speed
Unknown
Apparent Right ascension
Unknown
Apparent Declination
Unknown
Sunlit
N/A
Visualization observer readout
Local Sidereal Time
21:36:08
Azimuth
Unknown
Elevation
Unknown
Doppler factor
Unknown
Orbital elements
Apogee altitude
1,384.718 km
Perigee altitude
1,363.09 km
Semi-major axis
7,752.041 km
Eccentricity
0.0014
Inclination
82.6026°
RAAN
208.6474°
Arg. of periapsis
88.1318°
True anomaly
271.97785°
Mean anomaly
272.1376°
Eccentric anomaly
272.05772°
Mean motion
3.17994 °/min
Orbital period
113.21 mins
BSTAR
0.0017533
Loading maneuver chart data...
Computing Atmospheric mass density...
Loading historical data...
Loading historical data...
Loading historical data...
Loading historical data...
Loading historical data...
Loading historical data...
Loading historical data...

Documentation

Showing up to 5 results
|